Weather History for Yuma MCAS, AZ

Change the Weather History Date:

Wednesday, April 17, 2013

  Actual Average Record
Temperature  
Mean Temperature 66 °F 73 °F  
Max Temperature 77 °F 87 °F 105 °F (1954)
Min Temperature 54 °F 60 °F 43 °F (1924)
Degree Days  
Heating Degree Days 0 0  
Month to date heating degree days 0 12  
Since 1 July heating degree days 705 685  
Cooling Degree Days 1 9  
Month to date cooling degree days 141 117  
Year to date cooling degree days 350 270  
Growing Degree Days 16 (Base 50)    
Moisture  
Dew Point 17 °F    
Average Humidity 24    
Maximum Humidity 43    
Minimum Humidity 5    
Precipitation  
Precipitation 0.00 in 0.00 in 0.14 in (1917)
Month to date precipitation T 0.11  
Year to date precipitation 1.11 1.20  
Sea Level Pressure  
Sea Level Pressure 29.97 in    
Wind  
Wind Speed 11 mph (NW)    
Max Wind Speed 21 mph    
Max Gust Speed 29 mph    
Visibility 10 miles    
Events      
T = Trace of Precipitation, MM = Missing Value Source: NWS Daily Summary

Daily Weather History Graph

Daily Weather History Graph

Search for Another Location

Airport:

Trip Planner

Search our weather history database for the weather conditions in past years. The results will help you decide how hot, cold, wet, or windy it might be!

Date:

Astronomy

Apr. 17, 2013 Rise Set
Actual Time 6:06 AM MST 7:10 PM MST
Civil Twilight 5:40 AM MST 7:35 PM MST
Nautical Twilight 5:10 AM MST 8:05 PM MST
Astronomical Twilight 4:39 AM MST 8:36 PM MST
Moon 11:30 AM MST (4/17) 12:43 AM MST (4/17)
Length of Visible Light 13h 54m
Length of Day
13h 03m
Waxing Crescent, 43% of the Moon is Illuminated
Apr 17
Waxing Crescent
Apr 18
First Quarter
Apr 25
Full
May 2
Last Quarter
May 9
New

Hourly Weather History & Observations

Time (MST) Temp. Dew Point Humidity Pressure Visibility Wind Dir Wind Speed Gust Speed Precip Events Conditions
12:55 AM 57.9 °F 36.0 °F 44% 29.87 in 10.0 mi WNW 12.7 mph - N/A   Clear
1:55 AM 57.0 °F 35.1 °F 44% 29.87 in 10.0 mi WNW 8.1 mph - N/A   Clear
2:55 AM 57.0 °F 30.9 °F 37% 29.87 in 10.0 mi WNW 11.5 mph 20.7 mph N/A   Clear
3:55 AM 55.9 °F 30.9 °F 39% 29.88 in 10.0 mi WNW 13.8 mph - N/A   Clear
4:55 AM 54.0 °F 30.9 °F 41% 29.90 in 10.0 mi WNW 10.4 mph - N/A   Clear
5:55 AM 54.0 °F 30.9 °F 41% 29.91 in 10.0 mi WNW 10.4 mph - N/A   Partly Cloudy
6:55 AM 54.0 °F 30.9 °F 41% 29.95 in 10.0 mi West 8.1 mph - N/A   Partly Cloudy
7:55 AM 57.9 °F 30.9 °F 36% 29.98 in 10.0 mi WNW 11.5 mph - N/A   Clear
8:55 AM 62.1 °F 28.9 °F 29% 29.99 in 10.0 mi WNW 12.7 mph - N/A   Clear
9:55 AM 68.0 °F 21.9 °F 17% 30.00 in 10.0 mi WNW 13.8 mph - N/A   Clear
10:55 AM 72.0 °F 17.1 °F 12% 30.01 in 10.0 mi North 17.3 mph 20.7 mph N/A   Partly Cloudy
11:55 AM 73.9 °F 14.0 °F 10% 29.99 in 10.0 mi NW 12.7 mph 25.3 mph N/A   Partly Cloudy
12:55 PM 75.9 °F 10.9 °F 8% 29.98 in 10.0 mi NNW 16.1 mph 23.0 mph N/A   Clear
1:55 PM 77.0 °F 9.0 °F 7% 29.98 in 10.0 mi North 13.8 mph 19.6 mph N/A   Clear
2:55 PM 77.0 °F 8.1 °F 7% 29.97 in 10.0 mi North 8.1 mph 18.4 mph N/A   Clear
3:55 PM 77.0 °F 3.0 °F 6% 29.96 in 10.0 mi WNW 10.4 mph 21.9 mph N/A   Clear
4:55 PM 75.9 °F -0.9 °F 5% 29.96 in 10.0 mi NNW 15.0 mph 24.2 mph N/A   Clear
5:55 PM 75.0 °F 3.9 °F 6% 29.96 in 10.0 mi North 12.7 mph 20.7 mph N/A   Clear
6:55 PM 73.0 °F 1.0 °F 6% 29.97 in 10.0 mi NNW 12.7 mph 20.7 mph N/A   Clear
7:55 PM 70.0 °F 6.1 °F 8% 29.99 in 10.0 mi NNW 6.9 mph - N/A   Clear
8:55 PM 70.0 °F 7.0 °F 9% 30.02 in 10.0 mi NNW 8.1 mph - N/A   Clear
9:55 PM 68.0 °F 7.0 °F 9% 30.04 in 10.0 mi NNW 8.1 mph - N/A   Clear
10:55 PM 64.9 °F 10.0 °F 12% 30.06 in 10.0 mi East 8.1 mph - N/A   Clear
11:55 PM 62.1 °F 12.9 °F 15% 30.06 in 10.0 mi North 5.8 mph - N/A   Clear